COSMOS 249 DEB, 3606

Orbit data source: Space-Track

COSMOS 249 DEB, 3606 is space debris in LEO originally from a launch on Sun, 20 Oct 1968 UTC launched from the Tyuratam Missile And Space Complex (TTMTR). Debris objects in space refer to the collection of defunct objects orbiting the Earth. Examples of debris include non-operational satellites, rocket bodies, and fragments generated from explosions, collisions, or faulty payload assembly.

Loading next visibility...
Identifier
3606, 1968-091Y
Orbit
LEO
Country
Flag of CISCIS
Related business
Manufacturer
Unknown
Mission
Spacecraft
Bus & Motor
Unknown
Mass
Unknown
Launch date (UTC)
1968-10-20 (58 years ago)
Launch vehicle
Unknown
Launch site
Tyuratam Missile And Space Complex (TTMTR)
Object type
Payload
Rocket body
Debris
Shape & HBR
Unknown shape, 0.1 m
Radar Cross Section
Medium (>0.1 m² and <1 m²)

Expand to show TLE details & history
Last TLE update: 18 hours ago

TLE from 18 hours ago
0 COSMOS 249 DEB
1  3606U 68091Y   26171.20600618  .00000041  00000-0  10652-3 0  9991
2  3606  62.2569  98.6354 0728117 285.0144  67.1427 13.06116599685065
Epoch: 2026-06-20T04:56Z
TLE epoch observation values (Epoch: 2026-06-20T04:56:38.933Z)
Latitude
-0.00007°
Longitude
116.04918°
Altitude
1,060.133 km
Speed
7.408 km/s
True Right ascension
06h 34m 32s
True Declination
0° 00' 00"
Sunlit
Object was in daylight at epoch
Visualization orbit readout
Latitude
Unknown
Longitude
Unknown
Altitude
Unknown
Speed
Unknown
Apparent Right ascension
Unknown
Apparent Declination
Unknown
Sunlit
N/A
Visualization observer readout
Local Sidereal Time
10:17:53
Azimuth
Unknown
Elevation
Unknown
Doppler factor
Unknown
Orbital elements
Apogee altitude
1,791.689 km
Perigee altitude
682.718 km
Semi-major axis
7,615.341 km
Eccentricity
0.07281
Inclination
62.2569°
RAAN
98.6354°
Arg. of periapsis
285.0144°
True anomaly
75.08683°
Mean anomaly
67.1427°
Eccentric anomaly
71.08933°
Mean motion
3.26595 °/min
Orbital period
110.23 mins
BSTAR
0.00010652
Loading maneuver chart data...
Computing Atmospheric mass density...

Documentation

Showing up to 5 results
|